Regional Weather Roundup
Issued by NWS

Home | Current Version | Previous Version | Graphics & Text | Print | Product List | Glossary On
Versions: 1 2 3 4 5 6 7 8 9 10 11 12 13 14 15 16 17 18 19 20 21 22 23 24 25 26 27 28 29 30 31 32 33 34 35 36 37 38 39 40 41 42 43 44 45 46 47 48 49 50
000
ASUS45 KPSR 010110
RWRAZ

ARIZONA HOURLY REGIONAL WEATHER ROUNDUP
NATIONAL WEATHER SERVICE PHOENIX AZ
600 PM MST MON AUG 31 2015

NOTE: FAIR INDICATES FEW OR NO CLOUDS BELOW 12,000 FEET WITH NO
SIGNIFICANT WEATHER AND/OR OBSTRUCTIONS TO VISIBILITY.

AZZ001>003-036-010200-
NORTHWEST ARIZONA

CITY           SKY/WX    TMP DP  RH WIND       PRES   REMARKS
BULLHEAD CITY  SUNNY    104  46  14 SW10G20   29.69S HX 100
KINGMAN        SUNNY     93  47  20 W14G23    29.92F
$$

AZZ004>008-015-016-018-010200-
NORTH CENTRAL ARIZONA

CITY           SKY/WX    TMP DP  RH WIND       PRES   REMARKS
GRAND CANYON   MOSUNNY   70  51  51 SE8       30.21
WILLIAMS       PTSUNNY   73  54  49 E5        30.26S
PRESCOTT       MOSUNNY   84  49  29 S7        30.07F
FLAGSTAFF      PTSUNNY   65  52  62 E10       30.28S
PAYSON         CLOUDY    77  55  47 NE20G25   30.13R
PAGE           CLOUDY    83  53  35 S9        30.01F
$$

AZZ009>014-017-010200-
NORTHEAST ARIZONA

CITY           SKY/WX    TMP DP  RH WIND       PRES   REMARKS
WINSLOW        CLOUDY    67  60  78 SW8       30.18R
SAINT JOHNS    CLOUDY    72  51  47 VRB3      30.15F
WINDOW ROCK    CLOUDY    70  46  42 NE9       30.23R
SHOW LOW       CLOUDY    59  54  82 SW5       30.24R
$$

AZZ023-010200-
GREATER PHOENIX AREA

CITY           SKY/WX    TMP DP  RH WIND       PRES   REMARKS
PHOENIX        MOSUNNY  104  58  21 SW5       29.72S HX 104
BUCKEYE        MOSUNNY  102  55  21 SW9       29.72S HX 101
GLENDALE       MOSUNNY  106  57  20 SW8       29.74S HX 105
LUKE AFB       SUNNY    104  57  21 NW3       29.72S HX 103
DEER VALLEY    SUNNY    100  57  23 SW5       29.76S
SCOTTSDALE     SUNNY    102  56  21 CALM      29.78S HX 101
MESA-FALCON    MOSUNNY  104  57  21 W12       29.76S HX 103
MESA-GATEWAY   PTSUNNY  100  55  22 SW3       29.78S
CHANDLER       MOSUNNY  102  57  22 W8        29.75S HX 101
$$

AZZ027-028-010200-
SOUTHWEST MARICOPA COUNTY AND PINAL COUNTY

CITY           SKY/WX    TMP DP  RH WIND       PRES   REMARKS
CASA GRANDE    SUNNY    102  54  19 CALM      29.76F HX 100
GILA BEND      MOSUNNY  105  52  16 SW15G23   29.70S HX 103
$$

AZZ503-504-507>509-010200-
SOUTHEAST ARIZONA

CITY           SKY/WX    TMP DP  RH WIND       PRES   REMARKS
TUCSON         MOCLDY    94  59  31 S16       29.92R
DAVIS-MONTHAN  PTCLDY    92  61  34 S16G23    29.91R
RYAN FIELD     PTCLDY    97  61  30 S14       29.90R
NOGALES        CLOUDY    76  61  59 SW7       30.06R
SIERRA VISTA   CLOUDY    81  58  46 SW13      30.10S
DOUGLAS        CLOUDY    81  60  48 W7        30.05R
SAFFORD        HVY RAIN  73  62  68 E14       29.97R
$$

AZZ020-021-025-026-031-010200-
SOUTHWEST ARIZONA

CITY           SKY/WX    TMP DP  RH WIND       PRES   REMARKS
YUMA           PTSUNNY  106  53  17 S13       29.67S HX 104
$$

CAZ031-033-041-043-047-048-061-010200-
SOUTHERN CALIFORNIA

CITY           SKY/WX    TMP DP  RH WIND       PRES   REMARKS
DOWNTOWN L.A.  SUNNY     77  62  59 VRB5      29.84F
L.A. AIRPORT   MOSUNNY   73  63  70 W13       29.85F
SAN DIEGO      PTSUNNY   73  62  68 S10       29.88S
BURBANK        SUNNY     80  59  48 S10       29.84F
ONTARIO        SUNNY     84  54  35 W12       29.84S
RIVERSIDE      SUNNY     83  60  45 W10       29.83S
PALM SPRINGS   SUNNY    103  38  10 NW17      29.70F
EL CENTRO NAS  MOSUNNY  106  47  13 SW8       29.66S HX 102
IMPERIAL       SUNNY    107  47  13 CALM      29.63F HX 103
BLYTHE         SUNNY    105  58  21 S12       29.66F HX 105
NEEDLES        SUNNY    106  47  13 SW12      29.70F HX 102
$$

NVZ020-UTZ003-010200-
SOUTHERN NEVADA-UTAH

CITY           SKY/WX    TMP DP  RH WIND       PRES   REMARKS
LAS VEGAS      MOSUNNY  100  40  12 S8G21     29.73F
SALT LAKE CITY MOSUNNY   86  41  20 N8        29.96F
$$

NMZ009-TXZ055-010200-
NEW MEXICO-WEST TEXAS

CITY           SKY/WX    TMP DP  RH WIND       PRES   REMARKS
ALBUQUERQUE    CLOUDY    82  46  28 NW16      30.11R
EL PASO        PTCLDY    93  41  16 S9        29.97S
$$


........................KEY........................
SKY/WX - SKY CONDITION/WEATHER
TMP    - TEMPERATURE IN FAHRENHEIT
DP     - DEW POINT IN FAHRENHEIT
RH     - RELATIVE HUMIDITY IN PERCENT
WIND   - DIRECTION AND SPEED IN MILES PER HOUR (MPH)
VRB    - VARIABLE WIND DIRECTION
PRES   - MEAN SEA LEVEL PRESSURE IN INCHES OF MERCURY
         F - FALLING PRESSURE   R - RISING PRESSURE
         S - STEADY PRESSURE
VSB    - VISIBILITY IN MILES
HX     - HEAT INDEX IN FAHRENHEIT
WCI    - WIND CHILL INDEX IN FAHRENHEIT
TC     - TEMPERATURE IN CELSIUS WHICH IS ALSO KNOWN AS
         TEMPERATURE IN CENTIGRADE
AFB    - AIR FORCE BASE
         LUKE AFB IS LUKE AIR FORCE BASE
         DAVIS-MONTHAN IS DAVIS-MONTHAN AIR FORCE BASE
NAS    - NAVAL AIR STATION
         EL CENTRO NAS IS EL CENTRO NAVAL AIR STATION
N/A    - NOT AVAILABLE



USA.gov is the U.S. government's official web portal to all federal, state and local government web resources and services.